Other Public Products
Issued by NWS Charleston, SC

Current Version | Previous Version | Graphics & Text | Print | Product List | Glossary On
Versions: 1 2 3 4 5 6 7 8 9 10 11 12 13 14 15 16 17 18 19 20 21 22 23 24 25 26 27 28 29 30 31 32 33 34 35 36 37 38 39 40 41 42 43 44 45 46 47 48 49 50
000
FPUS82 KCHS 182323
OPUCHS

TEST...KCHS/KSAV Gateway Observations...TEST
National Weather Service Charleston SC
700 PM EDT MON SEP 18 2017

NOTE: "fair" indicates few or no clouds below 12,000 feet with no
significant weather and/or obstructions to visibility.

SCZ050-WAZ558-NCZ071-TXZ119-213-PAZ071-DCZ001-FLZ074-172-MI076-
NYZ176-178-MAZ016-IL014-TNZ027-NJZ106-GAZ044-MD014-190000-

...Gateway Observations for Charleston International...

CITY           SKY/WX    TMP DP  RH WIND       PRES   REMARKS
Chas Airport   PTCLDY    81  64  56 NE6       29.95R
Seattle        LGT RAIN  56  51  84 S9        29.76S
Charlotte      PTCLDY    81  66  60 N7        30.00R
Dallas DFW     MOSUNNY   93  64  38 S7        29.88S HX  94
Dallas Love    MOSUNNY   93  63  36 S8        29.88F HX  94
Philladelphia  MOCLDY    75  65  70 NE12      30.05S
Wash National  MOCLDY    74  68  81 NE12      30.03R
Baltimore      PTCLDY    72  69  90 N5        30.03S
Miami          PTCLDY    89  69  51 W8        29.87S HX  93
Detroit        CLOUDY    69  65  86 E9        30.05S FOG
Newark         MOCLDY    73  65  75 NE10      30.08S
Laguardia      CLOUDY    73  67  81 NE13      30.08S
J F K          MOCLDY    72  66  81 NE9       30.09S
Boston Logan   CLOUDY    65  64  97 NE9       30.16S FOG
Ft. Lauderdale CLOUDY    85  73  67 N13G21    29.86R HX  91
Chicago O`Hare CLOUDY    70  54  56 E10       30.01S
Chicago Midway MOCLDY    70  56  61 E9        30.01S
Houston Bush   TSTM      77  73  87 S3        29.96R
Houston Hobby  TSTM      84  77  79 N6        29.92S HX  94
Nashville      MOCLDY    87  63  44 NE6       30.00R
Atlanta        PTCLDY    83  61  47 NW10      30.00F

$$

GAZ044-118-TXZ119-213-NCZ071-DCZ001-MDZ014-506-PAZ021-071-NJZ106-
NYZ176-178-MAZ106-OHZ011-021-055-MIZ076-KYZ091-ILZ014-INZ047-
MNZ060-ONZ431-190000-

...Gateway Observations for Savannah International...

CITY           SKY/WX    TMP DP  RH WIND       PRES   REMARKS
Savannah Arpt  PTCLDY    85  66  53 NE6       29.95S
Atlanta        PTCLDY    83  61  47 NW10      30.00F
Charlotte      PTCLDY    81  66  60 N7        30.00R
Dallas DFW     MOSUNNY   93  64  38 S7        29.88S HX  94
Houston Bush   TSTM      77  73  87 S3        29.96R
Wash National  MOCLDY    74  68  81 NE12      30.03R
Wash Dulles    PTCLDY    73  67  81 NE7       30.03F
Baltimore      PTCLDY    72  69  90 N5        30.03S
Philadelphia   MOCLDY    75  65  70 NE12      30.05S
Newark         MOCLDY    73  65  75 NE10      30.08S
Laguardia      CLOUDY    73  67  81 NE13      30.08S
J F K          MOCLDY    72  66  81 NE9       30.09S
Boston         CLOUDY    65  64  97 NE9       30.16S FOG
Pittsburg      MOCLDY    80  63  55 NE5       30.04S
Akron          MOCLDY    81  61  50 CALM      30.04S
Cleveland      CLOUDY    76  64  66 N7        30.05S
Cincinnati     CLOUDY    79  69  71 N3        30.01S
Columbus       PTCLDY    77  65  67 CALM      30.01S
Detroit        CLOUDY    69  65  86 E9        30.05S FOG
Chicago O`Hare CLOUDY    70  54  56 E10       30.01S
Minneapolis    CLOUDY    57  54  89 SE12      29.98S
Indianapolis   CLOUDY    78  68  71 S6        29.97S THUNDER
Toronto Canada MOCLDY    73  64  73 VRB3      30.03R

$$




USA.gov is the U.S. government's official web portal to all federal, state and local government web resources and services.